Weather Roundup
Issued by NWS Springfield, MO

Home | Current Version | Previous Version | Text Only | Print | Product List | Glossary On
Versions: 1 2 3 4 5 6 7 8 9 10 11 12 13 14 15 16 17 18 19 20 21 22 23 24 25 26 27 28 29 30 31 32 33 34 35 36 37 38 39 40 41 42 43 44 45 46 47 48 49 50
000
NZUS99 KSGF 231207
HRRSGF

HOURLY WEATHER
NATIONAL WEATHER SERVICE SPRINGFIELD MO
700 AM CDT WED JUL 23 2014

......SGF CWA......

CITY           SKY/WX    TMP DP  RH WIND       PRES   REMARKS
SPRINGFIELD    CLEAR     77  74  90 CALM      30.09R FOG
6HR MIN TEMP:  76; 6HR MAX TEMP:  80;

JOPLIN         CLEAR     77  75  93 SW7       30.09R FOG
6HR MIN TEMP:  76; 6HR MAX TEMP:  82;

WEST PLAINS    CLEAR     73  69  87 W3        30.08F
6HR MIN TEMP:  72; 6HR MAX TEMP:  76;

ROLLA          CLOUDY    77  74  90 CALM      30.05R
6HR MIN TEMP:  73; 6HR MAX TEMP:  79;

OSAGE BEACH    CLOUDY    79  75  89 N5        30.06R
BRANSON        MOCLDY    77  73  88 SW5       30.11R

......SURROUNDING SGF CWA......

CITY           SKY/WX    TMP DP  RH WIND       PRES   REMARKS
CHANUTE        PTCLDY    78  76  93 N6        30.10R FOG
PARSONS        CLEAR     74  71  91 CALM      30.10R FOG
COFFEYVILLE    CLEAR     75  74  96 SW3       30.08R FOG
EMPORIA        CLOUDY    75  71  87 NE9       30.14R
GROVE OK       PTCLDY    75  75 100 CALM      30.11R FOG
ROGERS AR      CLEAR     75  72  90 W5        30.13R FOG
SILOAM SPRINGS CLEAR     73  68  83 CALM      30.13R
HARRISON AR    CLEAR     77  73  87 W7        30.10S
NEAR YELLVILLE CLEAR     73  66  78 CALM      30.07R

......KANSAS AND MISSOURI......

CITY           SKY/WX    TMP DP  RH WIND       PRES   REMARKS
KANSAS CTY INT PTCLDY    71  67  87 N8        30.16R
DOWNTOWN KC    MOCLDY    76  67  73 N10       30.13R
COLUMBIA       CLEAR     75  71  87 N9        30.08R
SEDALIA        CLEAR     75  70  84 N9        30.11R
ST JOSEPH      CLEAR     68  65  90 N6        30.16R
ST LOUIS       MOSUNNY   80  75  84 N7        30.01S
SPIRIT OF STL  MOSUNNY   79  75  87 N3        30.00S
KIRKSVILLE     CLEAR     70  65  84 N9        30.13R
WICHITA        MOCLDY    75  71  87 S3        30.12R FOG
TOPEKA         CLEAR     74  68  81 N6        30.16R
OLATHE         CLOUDY    76  67  73 NE12G18   30.12R

......TENNESSEE......

CITY           SKY/WX    TMP DP  RH WIND       PRES   REMARKS
MEMPHIS        MOSUNNY   76  70  82 CALM      30.06S
NASHVILLE      MOSUNNY   74  73  97 S3        30.08R

......ARKANSAS.......

CITY           SKY/WX    TMP DP  RH WIND       PRES   REMARKS
FAYETTEVILLE   CLEAR     72  71  97 S3        30.12S
FT SMITH       PTCLDY    77  74  90 CALM      30.07R
LITTLE ROCK    PTCLDY    71  68  90 CALM      30.06F FOG

......OKLAHOMA.......

CITY           SKY/WX    TMP DP  RH WIND       PRES   REMARKS
TULSA          MOCLDY    80  74  81 CALM      30.08R
PONCA CITY     CLEAR     74  72  93 CALM      30.10R FOG
MCALESTER      PTCLDY    72  70  93 CALM      30.11R FOG
OKLAHOMA CITY  PTCLDY    73  71  93 S3        30.14R FOG

......IOWA............

CITY           SKY/WX    TMP DP  RH WIND       PRES   REMARKS
DES MOINES     CLEAR     68  59  73 N7        30.17R
QUAD CITIES    SUNNY     70  63  78 NE7       30.12R

......ILLINOIS........

CITY           SKY/WX    TMP DP  RH WIND       PRES   REMARKS
QUINCY         SUNNY     71  68  90 N10       30.07R
CHICAGO        MOSUNNY   65  52  62 N17       30.11R




USA.gov is the U.S. government's official web portal to all federal, state and local government web resources and services.